アラン-リゴー彗星

49P/Arend-Rigaux (2018)

English version
Home page
Updated on June 15, 2021

---------------------------------------------------------------------

・ プロフィール

・ 写真集

・ 軌道要素

Epoch 2018 July 21.0 TT = JDT 2458320.5
T 2018 July 15.49761 TT                                 Rudenko
q   1.4296072            (2000.0)            P               Q
n   0.14618295     Peri.  332.88801     -0.05173115     -0.95687528
a   3.5689317      Node   118.82426     +0.96518809     -0.12139251
e   0.5994299      Incl.   19.04322     +0.25639001     +0.26391960
P   6.74
From 3684 observations 1951 Apr. 6-2020 July 20, mean residual 0".7.
     Nongravitational parameters A1 = +0.01, A2 = -0.0004.

・ 星図

・ 光度変化

        H = 13.5  G = 0.15                       [   , -80]  (              〜2018年 4月26日)
        m1 = 8.0 + 5 logΔ + 30.0 log r(t - 10)  [-80, 117]  (2018年 4月26日〜2018年11月 9日)
        H = 13.5  G = 0.15                       [117,    ]  (2018年11月 9日〜              )

---------------------------------------------------------------------

軌道要素はM.P.E.C. 2021-F20に掲載されたものです。
星図はステラナビゲータ Ver.8 (アストロアーツ) で作成したものです。
光度グラフはComet for Windowsで作成したものです。

---------------------------------------------------------------------

Copyright(C) Seiichi Yoshida (comet@aerith.net). All rights reserved.